Regional Weather Roundup
Issued by NWS Cleveland, OH

Home | Current Version | Previous Version | Graphics & Text | Print | Product List | Glossary On
Versions: 1 2 3 4 5 6 7 8 9 10 11 12 13 14 15 16 17 18 19 20 21 22 23 24 25 26 27 28 29 30 31 32 33 34 35 36 37 38 39 40 41 42 43 44 45 46 47 48 49 50
000
ASUS41 KCLE 310610
RWRCLE
OHIO REGIONAL WEATHER ROUNDUP
NATIONAL WEATHER SERVICE WILMINGTON, OH
200 AM EDT THU JUL 31 2014

NOTE: "FAIR" INDICATES FEW OR NO CLOUDS BELOW 12,000 FEET WITH NO
SIGNIFICANT WEATHER AND/OR OBSTRUCTIONS TO VISIBILITY.

OHZ001>008-015>018-024>027-034-035-043-044-310700-
   NORTHWEST OHIO

CITY           SKY/WX    TMP DP  RH WIND       PRES   REMARKS
DEFIANCE       MOCLDY    60  54  80 CALM      30.03S
FINDLAY        MOCLDY    62  58  86 SW3       30.02S
TOLEDO EXPRESS CLEAR     56  53  90 W3        30.02R
TOLEDO METCALF CLEAR     60  55  83 CALM      30.02S
LIMA           PTCLDY    65  60  84 SW6       30.04S
$$

OHZ009>014-019>023-028>033-038-089-310700-
   NORTHEAST OHIO

CITY           SKY/WX    TMP DP  RH WIND       PRES   REMARKS
CLE-HOPKINS    PTCLDY    61  59  93 S7        30.02S
CLE-LAKEFRONT  PTCLDY    63  59  87 S9        29.98F
CUY CO. ARPT   NOT AVBL
LORAIN-ELYRIA  CLEAR     63  58  83 SW5       30.01F
ASHTABULA      MOCLDY    59  57  93 S5        30.01F
AKRON-CANTON   MOCLDY    61  58  90 CALM      30.04S FOG
WOOSTER        CLOUDY    61  59  93 SW5       30.04S FOG
MANSFIELD      PTCLDY    61  59  93 SW3       30.04S
YOUNGSTOWN     TSTM      60  57  89 SW9       30.03S
$$

OHZ042-051>053-060>062-070>072-077>081-310700-
  SOUTHWEST OHIO

CITY           SKY/WX    TMP DP  RH WIND       PRES   REMARKS
CINC-COVINGTON PTCLDY    67  60  78 SW3       30.07S
CINC-LUNKEN    PTCLDY    64  61  90 S5        30.07R
HAMILTON       PTCLDY    61  60  97 CALM      30.07S FOG
DAYTON         PTCLDY    63  60  90 SE3       30.07F
WRIGHT-PAT AFB PTCLDY    63  61  92 S5        30.06F
DAYTON GENERAL PTCLDY    64  60  87 CALM      30.06S
WILMINGTON     CLEAR     59  58  96 S6        30.07S FOG
$$

OHZ036-037-039>041-045>050-054>059-063>069-073>076-082>088-310700-
  CENTRAL AND SOUTHEAST OHIO

CITY           SKY/WX    TMP DP  RH WIND       PRES   REMARKS
COLUMBUS       MOCLDY    65  60  84 S5        30.05S
OSU AIRPORT    LGT RAIN  65  58  78 W8        30.05S
BOLTON FIELD   LGT RAIN  65  60  85 SW3       30.06R
RICKENBACK AFB CLOUDY    62  57  84 S6        30.06S
NEWARK         MOCLDY    62  59  90 SW3       30.05S
MARION         CLOUDY    66  60  81 SW8       30.04S
LANCASTER      CLOUDY    63  59  87 S3        30.07S
ZANESVILLE     PTCLDY    61  58  90 S3        30.06S
NEW PHILLY     CLEAR     58  58 100 VRB5      30.05F FOG
$$



USA.gov is the U.S. government's official web portal to all federal, state and local government web resources and services.